TimeAEST,TemperatureF,Dew PointF,Humidity,Sea Level PressureIn,VisibilityMPH,Wind Direction,Wind SpeedMPH,Gust SpeedMPH,PrecipitationIn,Events,Conditions,WindDirDegrees,DateUTC
12:00 AM,74,72,94,29.92,,NW,12.7,,,,,320,2013-10-08 14:00:00
12:00 AM,73.4,73.4,100,29.92,-9999.0,NW,12.7,-,N/A,,Unknown,320,2013-10-08 14:00:00
12:30 AM,73.4,71.6,94,29.92,-9999.0,NNW,12.7,-,N/A,,Unknown,330,2013-10-08 14:30:00
1:00 AM,73.4,71.6,94,29.92,-9999.0,NW,13.8,-,N/A,,Unknown,320,2013-10-08 15:00:00
1:30 AM,73.4,71.6,94,29.89,-9999.0,NW,15.0,-,N/A,,Unknown,310,2013-10-08 15:30:00
2:00 AM,73.4,71.6,94,29.89,-9999.0,NW,12.7,-,N/A,,Unknown,310,2013-10-08 16:00:00
2:30 AM,73.4,71.6,94,29.89,-9999.0,WNW,10.4,-,N/A,,Unknown,300,2013-10-08 16:30:00
3:00 AM,73,72,97,29.91,,WNW,8.1,,,,,290,2013-10-08 17:00:00
3:00 AM,73.4,71.6,94,29.92,-9999.0,WNW,8.1,-,N/A,,Unknown,290,2013-10-08 17:00:00
3:30 AM,73.4,71.6,94,29.92,-9999.0,WNW,8.1,-,N/A,,Unknown,290,2013-10-08 17:30:00
4:00 AM,73.4,71.6,94,29.95,-9999.0,South,10.4,-,N/A,,Unknown,170,2013-10-08 18:00:00
4:30 AM,73.4,71.6,94,29.95,-9999.0,SSE,11.5,-,N/A,,Unknown,150,2013-10-08 18:30:00
5:00 AM,71.6,71.6,100,29.95,-9999.0,SE,12.7,-,N/A,,Unknown,140,2013-10-08 19:00:00
5:30 AM,71.6,71.6,100,29.98,-9999.0,SSE,19.6,-,N/A,,Unknown,150,2013-10-08 19:30:00
6:00 AM,73,72,95,29.99,,SSE,13.8,,,,,150,2013-10-08 20:00:00
6:00 AM,73.4,71.6,94,29.98,-9999.0,SSE,13.8,-,N/A,,Unknown,150,2013-10-08 20:00:00
6:30 AM,73.4,73.4,100,30.01,-9999.0,SSE,19.6,-,N/A,,Unknown,150,2013-10-08 20:30:00
7:00 AM,75.2,71.6,89,30.01,-9999.0,ESE,15.0,-,N/A,,Unknown,120,2013-10-08 21:00:00
7:30 AM,75.2,71.6,89,30.04,-9999.0,SE,17.3,-,N/A,,Unknown,130,2013-10-08 21:30:00
8:00 AM,78.8,71.6,78,30.04,-9999.0,SE,20.7,-,N/A,,Unknown,130,2013-10-08 22:00:00
8:30 AM,78.8,71.6,78,30.04,-9999.0,SE,23.0,-,N/A,,Unknown,130,2013-10-08 22:30:00
9:00 AM,80,72,69,30.06,,SE,21.9,,,,,130,2013-10-08 23:00:00
9:00 AM,80.6,71.6,74,30.06,-9999.0,SE,21.9,-,N/A,,Unknown,130,2013-10-08 23:00:00
9:30 AM,80.6,71.6,74,30.06,-9999.0,SE,21.9,-,N/A,,Unknown,130,2013-10-08 23:30:00
10:00 AM,78.8,69.8,74,30.06,-9999.0,SE,20.7,-,N/A,,Unknown,130,2013-10-09 00:00:00
10:30 AM,80.6,73.4,79,30.06,-9999.0,SE,19.6,-,N/A,,Unknown,130,2013-10-09 00:30:00
11:00 AM,80.6,69.8,70,30.06,-9999.0,ESE,20.7,-,N/A,,Unknown,120,2013-10-09 01:00:00
11:30 AM,78.8,69.8,74,30.04,-9999.0,SE,21.9,-,N/A,,Unknown,130,2013-10-09 01:30:00
12:00 PM,81,70,63,30.05,,ESE,24.2,,,,,120,2013-10-09 02:00:00
12:00 PM,80.6,69.8,70,30.04,-9999.0,ESE,24.2,-,N/A,,Unknown,120,2013-10-09 02:00:00
12:30 PM,80.6,69.8,70,30.04,-9999.0,ESE,23.0,-,N/A,,Unknown,120,2013-10-09 02:30:00
1:00 PM,80.6,69.8,70,30.04,-9999.0,ESE,24.2,-,N/A,,Unknown,120,2013-10-09 03:00:00
1:30 PM,80.6,69.8,70,30.01,-9999.0,ESE,23.0,-,N/A,,Unknown,110,2013-10-09 03:30:00
2:00 PM,80.6,69.8,70,30.01,-9999.0,ESE,21.9,-,N/A,,Unknown,110,2013-10-09 04:00:00
2:30 PM,78.8,69.8,74,30.01,-9999.0,ESE,23.0,-,N/A,,Unknown,120,2013-10-09 04:30:00
3:00 PM,79,69,63,30.01,,ESE,23.0,,,,,120,2013-10-09 05:00:00
3:00 PM,78.8,68.0,69,30.01,-9999.0,ESE,23.0,-,N/A,,Unknown,120,2013-10-09 05:00:00
3:30 PM,78.8,69.8,74,30.01,-9999.0,ESE,25.3,-,N/A,,Unknown,120,2013-10-09 05:30:00
4:00 PM,77.0,68.0,74,30.01,-9999.0,ESE,25.3,-,N/A,,Unknown,110,2013-10-09 06:00:00
4:30 PM,77.0,68.0,74,30.01,-9999.0,ESE,24.2,-,N/A,,Unknown,110,2013-10-09 06:30:00
5:00 PM,75.2,68.0,78,30.01,-9999.0,ESE,24.2,-,N/A,,Unknown,110,2013-10-09 07:00:00
5:30 PM,75.2,68.0,78,30.01,-9999.0,ESE,24.2,-,N/A,,Unknown,110,2013-10-09 07:30:00
6:00 PM,75,69,75,30.03,,East,28.8,,,,,100,2013-10-09 08:00:00
6:00 PM,75.2,68.0,78,30.01,-9999.0,East,28.8,-,N/A,,Unknown,100,2013-10-09 08:00:00
6:30 PM,75.2,68.0,78,30.04,-9999.0,East,29.9,-,N/A,,Unknown,100,2013-10-09 08:30:00
7:00 PM,75.2,68.0,78,30.04,-9999.0,East,27.6,-,N/A,,Unknown,100,2013-10-09 09:00:00
7:30 PM,75.2,68.0,78,30.04,-9999.0,East,29.9,-,N/A,,Unknown,100,2013-10-09 09:30:00
8:00 PM,75.2,66.2,73,30.06,-9999.0,ESE,29.9,-,N/A,,Unknown,110,2013-10-09 10:00:00
8:30 PM,75.2,68.0,78,30.06,-9999.0,ESE,26.5,-,N/A,,Unknown,110,2013-10-09 10:30:00
9:00 PM,74,66,71,30.08,,ESE,26.5,,,,,110,2013-10-09 11:00:00
9:00 PM,75.2,66.2,73,30.06,-9999.0,ESE,26.5,-,N/A,,Unknown,110,2013-10-09 11:00:00
9:30 PM,75.2,66.2,73,30.06,-9999.0,East,27.6,-,N/A,,Unknown,100,2013-10-09 11:30:00
10:00 PM,75.2,68.0,78,30.06,-9999.0,East,27.6,-,N/A,,Unknown,100,2013-10-09 12:00:00
10:30 PM,75.2,66.2,73,30.06,-9999.0,East,27.6,-,N/A,,Unknown,100,2013-10-09 12:30:00
11:00 PM,75.2,64.4,69,30.06,-9999.0,East,24.2,-,N/A,,Unknown,90,2013-10-09 13:00:00
11:30 PM,75.2,66.2,73,30.06,-9999.0,East,24.2,-,N/A,,Unknown,90,2013-10-09 13:30:00